Temperature
7 7 7 7 8 8 8 8 8 8 8 8 8 8 7 7 7 7 7 6 6 6 5 5 5 4 4 4 4 4 3 3 3 3 3 3 3 3 3 3 3 3 2
6 7 7 7 7 7 7 7 7 7 7 7 7 7 7 7 7 6 6 6 6 5 5 4 4 4 4 4 4 3 3 3 2 2 3 3 3 3 3 3 2 2 2
6 6 6 6 7 7 7 7 7 7 7 6 6 7 6 6 6 6 6 5 5 4 4 4 4 4 3 3 3 3 3 3 2 2 2 2 2 2 2 2 2 2 2
5 5 6 6 6 6 6 6 6 6 6 6 6 6 6 6 5 5 5 4 4 4 4 3 3 3 3 3 3 3 2 2 2 2 2 2 2 2 2 2 2 2 1
4 5 5 5 5 5 5 5 5 5 5 5 5 5 5 5 5 4 4 4 4 3 3 3 3 2 2 2 2 2 2 2 2 2 1 1 1 1 1 1 0 1 1
4 4 4 4 4 5 5 5 5 5 5 5 5 4 4 4 4 4 3 3 3 3 3 3 2 2 2 2 2 2 2 2 1 1 1 1 1 1 0 -0 -0 -1 -0
3 3 3 3 4 4 4 4 4 4 4 4 4 4 4 3 3 3 3 3 3 2 2 2 2 2 2 2 2 2 2 1 1 1 1 0 0 -0 -0 -0 -1 -1 -1
2 2 2 3 3 3 3 3 3 3 3 3 3 3 3 3 2 3 2 2 2 2 2 2 2 2 1 1 1 1 2 1 1 1 0 0 -0 -0 -1 -1 -1 -1 -1
2 2 2 2 2 2 2 2 2 2 2 2 2 2 2 2 2 2 2 2 2 2 1 1 1 1 1 1 1 1 1 1 1 0 0 -0 -0 -1 -1 -1 -2 -2 -2
1 1 1 1 1 1 1 2 1 1 1 1 1 1 1 1 1 1 1 1 1 1 1 1 1 1 1 0 0 0 0 0 0 0 0 -0 -0 -1 -1 -2 -2 -3 -3
-0 0 0 0 0 0 1 1 1 1 1 1 1 1 1 1 1 1 1 1 1 1 1 1 0 0 0 0 -0 -0 -0 -0 -0 -0 -0 -1 -1 -1 -1 -2 -2 -3 -3
-1 -0 -0 -0 -0 -0 -0 -0 -0 0 0 0 0 0 0 0 0 0 0 0 0 0 0 0 -0 -0 -0 -0 -0 -1 -1 -1 -1 -1 -1 -1 -1 -1 -1 -2 -2 -2 -3
-1 -1 -1 -1 -1 -1 -1 -1 -1 -1 -1 -1 -1 -0 -0 -0 -0 -0 -0 -0 -1 -1 -1 -1 -1 -1 -1 -1 -1 -1 -1 -1 -1 -1 -1 -2 -2 -2 -2 -2 -2 -2 -2
-2 -2 -2 -2 -1 -1 -1 -1 -1 -1 -1 -1 -1 -1 -1 -1 -1 -1 -1 -1 -1 -1 -1 -1 -1 -1 -1 -1 -1 -1 -2 -2 -2 -2 -2 -2 -2 -2 -2 -2 -2 -2 -2
-3 -2 -2 -2 -2 -2 -2 -2 -2 -2 -2 -2 -2 -2 -2 -1 -2 -2 -2 -2 -2 -2 -2 -1 -2 -2 -2 -2 -2 -2 -2 -2 -2 -2 -2 -2 -2 -2 -2 -2 -3 -3 -3
-3 -3 -3 -3 -3 -3 -3 -3 -3 -2 -2 -2 -2 -2 -2 -2 -2 -2 -2 -2 -2 -2 -2 -2 -2 -2 -2 -3 -3 -3 -3 -3 -3 -2 -3 -3 -3 -3 -3 -3 -3 -3 -4
-3 -3 -3 -3 -3 -3 -3 -3 -3 -3 -3 -3 -3 -3 -3 -3 -3 -3 -3 -3 -3 -3 -2 -3 -3 -3 -3 -3 -3 -3 -3 -3 -3 -3 -3 -3 -3 -3 -3 -3 -3 -4 -4
-4 -4 -4 -4 -4 -4 -4 -4 -3 -3 -3 -3 -3 -3 -3 -3 -3 -3 -3 -3 -3 -3 -3 -3 -3 -3 -3 -3 -3 -3 -3 -3 -3 -3 -3 -3 -4 -4 -4 -4 -4 -4 -4
-4 -4 -4 -4 -4 -4 -4 -4 -4 -4 -4 -4 -4 -3 -3 -3 -3 -3 -3 -3 -3 -3 -3 -4 -4 -4 -4 -4 -4 -4 -4 -4 -4 -4 -4 -4 -4 -4 -4 -4 -4 -4 -4
-5 -5 -5 -5 -5 -5 -5 -5 -5 -5 -4 -4 -4 -4 -4 -4 -4 -4 -4 -4 -4 -4 -4 -4 -4 -4 -4 -4 -4 -4 -4 -4 -4 -4 -4 -4 -4 -4 -4 -4 -4 -4 -4
-5 -5 -5 -5 -5 -5 -5 -5 -5 -5 -5 -5 -4 -4 -4 -4 -4 -4 -4 -4 -4 -4 -4 -4 -4 -4 -4 -4 -4 -4 -4 -4 -4 -4 -4 -4 -4 -4 -4 -4 -4 -4 -4
-5 -5 -5 -5 -6 -6 -6 -6 -5 -5 -5 -5 -5 -5 -5 -5 -5 -5 -5 -5 -5 -5 -5 -5 -5 -5 -5 -5 -5 -4 -4 -4 -4 -4 -4 -4 -4 -4 -4 -4 -4 -4 -4
-5 -6 -6 -6 -6 -6 -6 -6 -6 -6 -6 -5 -5 -5 -5 -5 -5 -5 -5 -5 -5 -5 -5 -5 -5 -5 -5 -5 -5 -5 -5 -5 -5 -4 -4 -4 -4 -4 -4 -4 -4 -4 -4
-6 -6 -6 -6 -6 -6 -6 -6 -6 -6 -6 -6 -6 -6 -6 -5 -5 -5 -5 -5 -5 -5 -5 -5 -5 -5 -5 -5 -5 -5 -5 -5 -5 -4 -4 -4 -4 -4 -4 -4 -4 -4 -4
-6 -6 -6 -6 -6 -6 -6 -6 -6 -6 -6 -6 -6 -6 -6 -6 -6 -5 -6 -6 -6 -5 -5 -5 -5 -5 -5 -5 -5 -5 -5 -5 -5 -4 -4 -4 -4 -4 -4 -4 -4 -4 -4
-7 -7 -7 -7 -7 -7 -6 -6 -6 -6 -6 -6 -6 -6 -6 -6 -6 -6 -6 -6 -6 -6 -6 -6 -6 -6 -5 -5 -5 -5 -5 -5 -5 -5 -4 -4 -4 -4 -4 -4 -4 -4 -4
Wind_Speed
1 2 3 3 3 3 3 3 4 4 4 4 5 5 5 4 4 3 3 2 2 1 1 1 1 1 1 1 1 2 3 3 6 7 6 6 7 7 9 11 12 11 12
1 2 2 3 3 3 2 3 3 4 4 4 4 4 4 4 4 4 3 3 3 2 1 1 1 1 2 2 2 2 3 3 5 8 7 7 7 7 7 8 10 11 11
2 3 3 3 3 3 3 2 3 3 3 3 4 4 4 4 3 3 3 3 2 2 2 2 2 1 2 2 3 3 3 4 4 6 8 6 6 6 7 8 8 8 11
2 3 3 2 2 2 2 3 3 3 3 3 3 3 3 3 3 3 2 2 2 1 1 2 2 2 3 3 3 3 3 4 5 5 6 7 6 6 6 7 9 7 8
3 3 2 2 2 2 3 3 3 3 3 3 3 3 3 2 2 3 2 2 2 1 1 2 2 2 3 3 3 3 3 4 4 5 6 6 6 7 7 6 8 9 8
3 2 3 3 2 2 2 3 3 3 2 2 3 3 3 2 2 3 2 2 2 2 2 2 2 2 3 5 6 6 5 4 5 4 5 7 7 7 6 7 7 8 7
2 3 3 3 2 2 2 3 3 3 2 2 2 3 3 3 2 2 1 1 1 2 2 2 2 2 3 3 5 6 6 7 6 5 6 7 7 7 7 7 7 8 8
2 3 3 2 2 2 2 3 2 2 2 2 2 3 3 2 2 2 1 0 1 1 1 1 1 2 3 3 3 4 4 5 6 4 4 6 6 6 6 6 7 8 8
2 2 2 2 2 2 2 2 2 2 2 2 2 2 3 2 2 2 2 1 0 0 1 1 1 1 5 6 3 4 5 5 7 8 9 9 10 11 9 5 6 7 8
1 2 2 2 2 2 2 1 1 2 2 2 2 2 2 2 2 2 3 1 0 1 1 1 3 3 5 5 3 3 5 5 6 7 7 8 7 7 9 5 5 6 6
2 2 2 1 1 1 1 1 1 2 2 2 2 2 2 2 1 2 3 1 0 1 1 2 2 5 5 5 4 2 5 6 4 5 5 5 5 5 6 6 6 5 6
2 2 2 1 1 2 2 1 1 2 3 2 2 2 1 1 1 1 3 3 3 1 1 1 3 5 5 5 4 6 7 6 3 4 4 5 5 5 6 7 8 8 6
1 1 1 2 1 1 1 1 1 2 2 2 2 1 1 1 1 2 3 3 4 2 1 3 4 5 5 4 5 6 5 3 3 3 4 5 5 5 6 6 7 8 8
1 1 1 1 1 1 1 1 1 1 2 2 1 1 1 1 0 1 1 2 3 3 3 3 4 5 4 4 4 3 3 3 3 3 4 4 4 5 5 5 6 6 6
0 0 1 1 1 1 1 1 1 1 2 2 2 1 2 1 0 1 1 1 1 1 2 1 2 2 3 3 3 3 3 3 3 3 3 4 5 5 5 5 5 6 5
1 0 0 1 1 1 1 1 2 1 1 1 1 1 0 0 0 0 1 2 2 3 2 1 1 2 2 2 3 3 3 3 3 3 3 4 5 5 6 6 5 5 6
1 1 1 1 1 1 1 1 1 1 2 1 1 1 1 1 1 0 1 1 2 2 1 1 1 1 2 2 2 3 3 3 3 3 3 4 4 5 5 5 6 6 6
1 1 1 1 1 1 1 1 1 1 1 0 0 1 0 1 1 1 1 1 1 2 1 1 2 2 2 2 3 3 3 3 3 3 3 4 4 4 5 5 5 6 6
1 1 1 1 1 1 1 1 1 1 1 0 0 0 1 1 1 1 2 1 0 0 1 1 1 2 2 2 3 3 3 3 3 3 3 4 4 4 4 5 5 8 7
1 2 1 1 1 1 1 1 1 1 1 1 0 0 0 1 1 1 1 1 0 1 1 1 1 2 2 2 2 3 3 3 3 3 4 4 4 4 4 5 5 5 6
1 2 2 2 1 1 1 1 1 1 1 0 0 1 0 1 1 0 0 0 0 1 1 2 2 2 2 2 2 3 3 3 3 3 3 4 4 4 4 4 5 5 5
1 2 2 2 2 2 1 1 1 1 1 1 0 0 0 1 1 1 0 0 1 1 1 1 1 2 2 2 3 3 3 3 4 4 4 4 4 4 4 4 5 5 5
2 2 2 2 2 2 1 1 1 1 1 0 0 0 0 1 0 0 0 0 1 1 2 2 2 2 3 4 4 3 3 3 4 4 4 4 4 4 4 4 5 5 5
2 2 2 2 2 2 2 1 1 1 1 1 0 0 0 0 0 0 0 1 1 2 3 3 3 3 4 5 5 5 5 6 6 5 4 4 4 3 3 4 4 5 5
2 2 2 2 2 2 2 2 1 1 1 1 1 0 0 0 0 0 0 1 1 2 3 3 3 4 5 6 6 6 7 7 6 5 4 3 3 3 3 4 4 4 4
1 2 2 2 2 2 2 2 1 1 1 1 0 0 0 0 0 0 0 1 1 2 3 3 4 5 6 6 6 7 7 7 6 5 4 2 2 2 3 3 4 4 3
Wind_Direction
137 144 136 134 130 136 148 148 149 147 150 156 162 164 166 170 162 159 169 158 165 182 185 194 272 313 306 295 293 293 291 284 285 299 306 314 317 316 320 317 315 312 314
131 108 106 113 118 120 130 145 151 153 152 156 160 161 163 168 167 165 170 171 177 192 210 219 266 296 287 287 285 284 287 288 290 301 309 315 314 315 317 316 319 318 315
115 109 103 102 112 120 120 122 134 141 145 144 149 156 162 166 163 160 169 177 184 196 207 221 246 255 274 292 294 290 291 301 296 298 304 311 312 322 323 320 318 315 317
101 112 114 109 105 111 118 121 119 131 138 142 147 143 146 151 151 151 160 172 188 201 220 232 247 252 259 277 285 285 293 297 297 298 303 311 315 322 326 324 322 321 318
102 99 100 94 91 98 108 114 111 113 129 139 134 126 126 141 145 143 155 173 187 201 236 247 259 281 303 301 302 300 301 298 304 306 305 312 318 329 326 323 320 320 315
98 100 99 98 98 102 107 112 112 113 110 118 125 126 129 129 128 130 144 183 191 206 230 248 263 268 294 309 316 318 315 308 307 303 303 310 312 315 317 322 323 328 320
103 106 106 107 107 106 112 117 123 126 124 128 137 132 136 135 134 136 104 142 205 218 228 247 283 306 315 297 311 318 316 314 310 298 298 304 308 313 315 317 320 320 308
99 102 107 112 111 104 105 118 128 125 131 132 138 137 136 133 113 108 98 100 205 225 240 240 271 305 316 325 315 315 312 311 311 310 293 298 307 311 311 311 308 311 305
88 100 108 117 120 115 115 121 129 125 117 112 118 128 128 126 109 81 66 170 164 346 349 351 334 310 326 338 334 318 320 322 325 322 319 317 319 324 331 329 326 325 318
60 94 101 112 127 134 138 129 125 125 125 118 110 116 120 124 109 78 47 109 63 9 356 353 345 338 333 340 335 321 320 324 331 333 331 332 332 332 336 334 321 319 316
38 72 82 90 116 123 114 112 129 129 123 117 108 97 98 111 115 81 46 57 51 348 337 335 326 335 339 344 348 330 323 332 331 328 330 336 341 344 346 341 332 317 311
47 64 72 71 83 103 104 95 116 132 128 130 121 111 104 115 75 42 27 25 13 338 306 316 324 333 340 345 348 346 348 351 342 339 342 340 340 339 338 338 333 327 312
54 67 71 63 65 90 122 130 133 137 137 140 137 141 127 111 73 20 18 15 7 4 331 330 342 348 348 346 350 355 358 356 349 345 337 331 330 330 337 338 338 339 332
87 93 95 92 85 88 100 122 138 157 152 153 152 156 144 131 69 46 31 14 7 356 349 345 355 360 357 352 354 352 350 347 344 331 330 328 331 337 343 342 337 339 338
114 100 92 93 94 91 75 81 147 184 176 177 182 178 167 188 252 22 29 351 339 332 356 -0 2 359 3 360 353 349 352 352 349 343 340 340 340 342 342 342 338 338 340
171 191 167 139 124 121 114 65 53 105 103 132 153 168 190 171 133 355 342 341 0 20 35 23 360 350 347 349 346 346 347 347 344 346 345 342 339 338 339 340 338 338 339
202 211 199 177 162 163 164 154 119 59 61 88 126 106 75 73 93 61 354 4 36 47 44 23 354 336 339 343 343 338 334 335 338 342 342 338 336 336 337 336 338 340 339
203 212 204 185 172 181 197 188 162 150 136 112 151 161 95 83 87 66 61 62 44 34 20 11 350 337 339 341 336 333 333 335 339 340 340 337 336 334 333 332 334 336 334
203 197 184 163 164 177 190 188 172 168 176 199 144 143 81 66 78 70 78 96 97 2 353 347 338 339 339 334 329 330 329 326 329 333 335 333 332 333 332 329 328 330 334
200 193 182 159 159 175 186 178 171 174 185 199 200 191 120 71 80 61 53 54 27 326 329 327 330 332 330 324 322 326 326 327 329 331 329 330 329 325 324 324 326 328 329
184 185 183 169 178 181 184 185 185 193 196 196 272 270 125 134 138 113 46 28 351 322 325 332 333 327 326 324 319 320 321 321 321 321 320 322 322 320 319 319 321 325 328
179 173 171 170 173 176 176 179 179 179 172 181 260 312 18 108 138 150 161 357 351 334 335 332 321 320 321 325 319 313 313 315 318 318 317 316 316 317 321 324 327 330 333
166 163 166 166 167 179 177 168 171 161 153 169 185 138 129 131 131 142 153 2 348 345 341 337 329 329 331 329 323 317 303 299 305 303 303 307 311 317 320 322 325 330 333
156 161 162 162 160 163 167 174 172 165 168 158 143 133 120 130 131 125 90 9 353 342 338 333 325 316 319 326 328 323 316 312 311 306 300 297 303 309 315 319 322 325 327
143 152 157 162 164 167 167 166 164 155 140 130 128 121 98 106 127 129 4 351 341 336 331 327 320 315 315 320 323 324 321 320 321 319 313 308 308 308 312 316 321 327 334
121 132 140 142 148 153 150 147 144 130 120 108 100 109 100 68 293 262 327 336 334 331 326 322 318 318 320 322 321 323 329 330 331 333 336 329 321 312 316 319 322 334 344
Height
1481 1483 1485 1488 1490 1492 1495 1497 1499 1501 1502 1504 1506 1507 1508 1510 1511 1511 1512 1513 1513 1513 1513 1513 1513 1513 1512 1511 1510 1509 1508 1507 1503 1499 1497 1494 1491 1487 1484 1480 1477 1473 1469
1479 1481 1483 1485 1487 1489 1491 1493 1495 1497 1499 1500 1502 1504 1505 1506 1507 1508 1509 1509 1509 1510 1510 1510 1509 1509 1509 1508 1507 1506 1505 1503 1501 1496 1493 1490 1487 1484 1480 1476 1472 1469 1465
1477 1478 1480 1482 1484 1486 1488 1490 1491 1493 1495 1497 1498 1500 1502 1503 1504 1504 1505 1505 1506 1506 1506 1506 1506 1506 1505 1505 1504 1502 1501 1500 1497 1494 1490 1487 1483 1480 1476 1472 1469 1465 1461
1475 1476 1478 1479 1481 1483 1485 1486 1488 1490 1492 1493 1495 1497 1498 1500 1500 1501 1502 1502 1503 1503 1503 1503 1503 1503 1502 1502 1500 1499 1498 1496 1493 1490 1487 1483 1480 1476 1473 1468 1463 1460 1457
1472 1474 1475 1477 1479 1480 1482 1484 1486 1487 1489 1491 1492 1493 1495 1496 1497 1498 1499 1499 1500 1500 1500 1500 1500 1500 1499 1499 1497 1496 1494 1492 1490 1487 1484 1480 1477 1473 1469 1465 1461 1457 1453
1471 1472 1473 1475 1476 1478 1479 1481 1483 1484 1486 1487 1489 1490 1492 1493 1494 1495 1496 1497 1497 1497 1497 1497 1497 1496 1496 1495 1494 1493 1491 1489 1486 1484 1481 1477 1474 1471 1468 1463 1459 1454 1449
1469 1470 1471 1473 1474 1476 1477 1478 1480 1481 1483 1484 1486 1487 1489 1490 1491 1492 1493 1493 1493 1493 1494 1494 1493 1493 1492 1491 1490 1489 1487 1486 1484 1482 1478 1475 1472 1469 1465 1461 1457 1453 1449
1467 1468 1470 1471 1472 1473 1474 1476 1477 1479 1480 1482 1483 1484 1486 1487 1488 1489 1490 1490 1490 1490 1490 1490 1490 1489 1489 1488 1486 1485 1483 1482 1480 1477 1475 1473 1470 1467 1464 1460 1456 1451 1447
1465 1466 1468 1469 1470 1471 1472 1473 1475 1476 1478 1479 1480 1482 1483 1484 1486 1487 1487 1487 1487 1487 1487 1487 1487 1486 1486 1485 1483 1481 1480 1478 1476 1475 1473 1470 1467 1464 1461 1457 1453 1448 1443
1464 1465 1466 1467 1468 1469 1470 1472 1473 1474 1475 1476 1478 1479 1481 1482 1483 1484 1484 1484 1484 1484 1484 1484 1484 1483 1482 1481 1480 1478 1476 1474 1472 1470 1468 1466 1464 1461 1458 1455 1452 1448 1443
1462 1463 1464 1465 1466 1467 1468 1470 1471 1472 1473 1474 1476 1477 1478 1479 1480 1481 1481 1481 1481 1481 1481 1481 1480 1480 1479 1479 1477 1476 1474 1472 1470 1468 1465 1463 1460 1458 1455 1452 1450 1447 1443
1461 1461 1462 1463 1464 1466 1467 1468 1469 1470 1471 1472 1473 1475 1476 1477 1478 1478 1478 1478 1479 1478 1478 1478 1478 1477 1477 1476 1474 1473 1472 1470 1467 1465 1462 1460 1457 1455 1452 1450 1447 1444 1441
1459 1460 1461 1462 1463 1464 1465 1466 1467 1468 1469 1470 1471 1472 1473 1474 1475 1475 1475 1476 1476 1476 1475 1475 1475 1475 1474 1473 1472 1471 1469 1467 1465 1462 1460 1458 1456 1453 1450 1447 1444 1442 1438
1458 1458 1459 1460 1461 1462 1463 1464 1465 1466 1467 1468 1469 1470 1471 1472 1472 1472 1473 1473 1473 1473 1473 1473 1473 1472 1471 1470 1469 1468 1466 1465 1463 1461 1458 1456 1454 1451 1448 1445 1442 1438 1435
1456 1457 1457 1458 1459 1460 1461 1462 1463 1464 1465 1466 1467 1468 1469 1469 1470 1470 1470 1470 1470 1470 1470 1470 1470 1469 1468 1467 1466 1465 1464 1462 1461 1459 1456 1454 1451 1449 1446 1444 1441 1437 1434
1454 1455 1455 1456 1457 1458 1459 1460 1461 1462 1463 1464 1465 1466 1467 1467 1468 1468 1468 1469 1468 1468 1468 1467 1467 1466 1466 1465 1464 1463 1462 1460 1459 1457 1455 1452 1450 1447 1445 1442 1440 1437 1433
1452 1453 1453 1454 1455 1456 1457 1458 1458 1460 1461 1462 1463 1464 1464 1465 1465 1466 1466 1466 1466 1466 1466 1465 1465 1465 1464 1463 1462 1461 1460 1458 1457 1455 1453 1451 1449 1446 1444 1441 1438 1436 1433
1450 1451 1451 1452 1453 1454 1455 1456 1457 1457 1458 1459 1461 1461 1462 1463 1463 1464 1464 1464 1464 1464 1464 1463 1463 1463 1462 1461 1460 1459 1458 1456 1455 1453 1451 1449 1447 1445 1443 1440 1438 1435 1433
1448 1449 1449 1450 1451 1452 1453 1454 1455 1456 1457 1457 1458 1459 1460 1460 1461 1461 1461 1462 1461 1462 1462 1462 1462 1461 1461 1460 1459 1458 1456 1455 1453 1452 1450 1448 1446 1444 1442 1440 1438 1435 1433
1446 1447 1447 1448 1449 1450 1451 1452 1453 1454 1455 1456 1456 1457 1458 1458 1459 1459 1459 1459 1459 1460 1460 1460 1460 1459 1459 1458 1457 1456 1455 1453 1452 1450 1448 1447 1445 1443 1441 1439 1437 1435 1433
1444 1444 1445 1446 1447 1448 1449 1450 1451 1452 1453 1454 1455 1455 1456 1456 1456 1457 1457 1457 1457 1457 1458 1458 1458 1457 1457 1456 1455 1454 1453 1451 1450 1449 1447 1446 1444 1442 1440 1439 1437 1435 1433
1441 1442 1443 1444 1445 1446 1448 1449 1449 1450 1451 1452 1453 1454 1454 1454 1455 1455 1455 1455 1455 1456 1456 1456 1455 1455 1455 1454 1453 1452 1451 1450 1448 1447 1446 1445 1443 1442 1440 1438 1437 1435 1433
1439 1440 1441 1442 1444 1445 1446 1447 1448 1449 1450 1450 1451 1452 1452 1452 1453 1453 1453 1453 1453 1454 1454 1453 1453 1453 1453 1452 1451 1450 1449 1448 1447 1446 1445 1444 1442 1441 1440 1438 1436 1435 1433
1438 1438 1440 1441 1442 1444 1445 1446 1447 1448 1448 1449 1449 1450 1450 1451 1451 1451 1451 1451 1451 1452 1451 1451 1451 1451 1450 1450 1449 1448 1448 1447 1446 1445 1444 1443 1442 1441 1439 1438 1436 1435 1433
1437 1438 1439 1440 1441 1442 1443 1445 1445 1446 1447 1447 1448 1448 1448 1449 1449 1449 1450 1450 1450 1449 1449 1449 1449 1449 1448 1447 1447 1446 1446 1445 1445 1444 1443 1442 1441 1440 1439 1438 1437 1435 1434
1436 1437 1438 1439 1440 1441 1442 1443 1444 1445 1446 1446 1446 1447 1447 1447 1447 1448 1448 1448 1448 1448 1447 1447 1447 1447 1446 1446 1445 1445 1444 1444 1443 1443 1442 1441 1440 1440 1439 1438 1437 1436 1435